Terminal Aerodrome Forecast
Issued by NWS

Home | Current Version | Previous Version | Graphics & Text | Print | Product List | Glossary On
Versions: 1 2 3 4 5 6 7 8 9 10 11 12 13 14 15 16
000
FTUS43 KIWX 251700
TAFSBN
TAF
KSBN 251740Z 2518/2618 24006KT P6SM SCT025 BKN035
      TEMPO 2518/2519 BKN025
     FM252000 VRB04KT P6SM VCTS SCT035CB BKN200
     FM252200 20006KT P6SM BKN035
     FM260800 22004KT 5SM BR VCSH BKN035
     FM261500 25009KT P6SM SCT035=

USA.gov is the U.S. government's official web portal to all federal, state and local government web resources and services.